Retour au catalogue

FENGYUN 1C DEB

ActifPO
NORAD 31342·DEBRIS·🇨🇳 China

Lancé May 10, 1999 depuis Taiyuan Satellite Launch Center

Loading…

Prochains Passages (prochaines 24 heures)

TLE

FraisSource: Space-Track

Époque: Sep 14, 2026, 03:33 UTC

1 31342U 99025BQW 26257.14801579  .00000182  00000-0  72593-4 0  9996
2 31342  98.9713 229.4913 0112616 129.4520 231.6695 14.36994244 18391

Suivez FENGYUN 1C DEB en temps réel avec AllMySat

Download on the App Store